Time,TemperatureF,DewpointF,PressureIn,WindDirection,WindDirectionDegrees,WindSpeedMPH,WindSpeedGustMPH,Humidity,HourlyPrecipIn,Conditions,Clouds,dailyrainin,SolarRadiationWatts/m^2,SoftwareType,DateUTC
2013-07-30 00:02:00,61.2,57.0,30.05,SW,220,2.0,6.0,87,0.00,,,0.00,0,weatherlink.com 1.10,2013-07-30 04:02:00,
2013-07-30 00:17:00,60.7,57.0,30.06,SSE,166,1.0,8.0,88,0.00,,,0.00,0,weatherlink.com 1.10,2013-07-30 04:17:00,
2013-07-30 00:32:00,60.1,57.0,30.06,South,173,2.0,4.0,89,0.00,,,0.00,0,weatherlink.com 1.10,2013-07-30 04:32:00,
2013-07-30 00:47:00,59.6,57.0,30.05,ESE,117,1.0,4.0,90,0.00,,,0.00,0,weatherlink.com 1.10,2013-07-30 04:47:00,
2013-07-30 01:02:00,59.2,56.0,30.05,SSE,163,0.0,4.0,90,0.00,,,0.00,0,weatherlink.com 1.10,2013-07-30 05:02:00,
2013-07-30 01:17:00,59.0,57.0,30.06,South,178,3.0,4.0,92,0.00,,,0.00,0,weatherlink.com 1.10,2013-07-30 05:17:00,
2013-07-30 01:32:00,59.0,57.0,30.06,West,265,1.0,6.0,92,0.00,,,0.00,0,weatherlink.com 1.10,2013-07-30 05:32:00,
2013-07-30 01:47:00,58.9,57.0,30.05,WSW,254,2.0,6.0,92,0.00,,,0.00,0,weatherlink.com 1.10,2013-07-30 05:47:00,
2013-07-30 02:02:00,58.9,57.0,30.06,West,262,3.0,5.0,92,0.00,,,0.00,0,weatherlink.com 1.10,2013-07-30 06:02:00,
2013-07-30 02:17:00,58.7,57.0,30.06,SW,219,1.0,5.0,93,0.00,,,0.00,0,weatherlink.com 1.10,2013-07-30 06:17:00,
2013-07-30 02:32:00,58.6,57.0,30.05,West,274,2.0,4.0,93,0.00,,,0.00,0,weatherlink.com 1.10,2013-07-30 06:32:00,
2013-07-30 02:47:00,58.6,57.0,30.05,SW,226,2.0,7.0,93,0.00,,,0.00,0,weatherlink.com 1.10,2013-07-30 06:47:00,
2013-07-30 03:02:00,58.6,57.0,30.05,SSE,167,2.0,4.0,93,0.00,,,0.00,0,weatherlink.com 1.10,2013-07-30 07:02:00,
2013-07-30 03:18:00,58.4,56.0,30.05,South,169,1.0,4.0,93,0.00,,,0.00,0,weatherlink.com 1.10,2013-07-30 07:18:00,
2013-07-30 03:32:00,58.2,56.0,30.05,South,181,2.0,4.0,93,0.00,,,0.00,0,weatherlink.com 1.10,2013-07-30 07:32:00,
2013-07-30 03:47:00,58.0,56.0,30.06,SW,217,1.0,4.0,94,0.00,,,0.00,0,weatherlink.com 1.10,2013-07-30 07:47:00,
2013-07-30 04:02:00,57.7,56.0,30.06,SSW,198,2.0,5.0,94,0.00,,,0.00,0,weatherlink.com 1.10,2013-07-30 08:02:00,
2013-07-30 04:17:00,57.6,56.0,30.06,WNW,286,1.0,4.0,94,0.00,,,0.00,0,weatherlink.com 1.10,2013-07-30 08:17:00,
2013-07-30 04:32:00,57.6,56.0,30.06,SSW,207,1.0,4.0,94,0.00,,,0.00,0,weatherlink.com 1.10,2013-07-30 08:32:00,
2013-07-30 04:47:00,57.4,56.0,30.06,South,187,0.0,5.0,94,0.00,,,0.00,0,weatherlink.com 1.10,2013-07-30 08:47:00,
2013-07-30 05:02:00,57.3,56.0,30.06,West,276,1.0,4.0,94,0.00,,,0.00,0,weatherlink.com 1.10,2013-07-30 09:02:00,
2013-07-30 05:17:00,57.2,56.0,30.06,East,101,1.0,4.0,94,0.00,,,0.00,0,weatherlink.com 1.10,2013-07-30 09:17:00,
2013-07-30 05:32:00,57.2,56.0,30.06,SSW,196,2.0,5.0,94,0.00,,,0.00,0,weatherlink.com 1.10,2013-07-30 09:32:00,
2013-07-30 05:47:00,56.8,55.0,30.06,ESE,112,1.0,3.0,94,0.00,,,0.00,5,weatherlink.com 1.10,2013-07-30 09:47:00,
2013-07-30 06:02:00,56.7,55.0,30.06,SE,146,1.0,3.0,94,0.00,,,0.00,11,weatherlink.com 1.10,2013-07-30 10:02:00,
2013-07-30 06:17:00,56.8,55.0,30.07,SSE,152,1.0,3.0,94,0.00,,,0.00,18,weatherlink.com 1.10,2013-07-30 10:17:00,
2013-07-30 06:32:00,57.3,56.0,30.07,SSE,162,2.0,3.0,94,0.00,,,0.00,67,weatherlink.com 1.10,2013-07-30 10:32:00,
2013-07-30 06:47:00,57.9,56.0,30.08,SE,142,1.0,3.0,94,0.00,,,0.00,107,weatherlink.com 1.10,2013-07-30 10:47:00,
2013-07-30 07:03:00,59.1,57.0,30.08,SE,133,2.0,3.0,94,0.00,,,0.00,146,weatherlink.com 1.10,2013-07-30 11:03:00,
2013-07-30 07:18:00,60.2,58.0,30.08,NE,55,1.0,4.0,92,0.00,,,0.00,190,weatherlink.com 1.10,2013-07-30 11:18:00,
2013-07-30 07:33:00,60.5,58.0,30.09,WSW,254,1.0,7.0,91,0.00,,,0.00,206,weatherlink.com 1.10,2013-07-30 11:33:00,
2013-07-30 07:48:00,61.1,58.0,30.09,SW,217,3.0,7.0,90,0.00,,,0.00,105,weatherlink.com 1.10,2013-07-30 11:48:00,
2013-07-30 08:03:00,61.7,59.0,30.09,WSW,245,6.0,9.0,89,0.00,,,0.00,74,weatherlink.com 1.10,2013-07-30 12:03:00,
2013-07-30 08:18:00,62.0,59.0,30.10,SW,223,7.0,9.0,88,0.00,,,0.00,54,weatherlink.com 1.10,2013-07-30 12:18:00,
2013-07-30 08:33:00,63.4,60.0,30.10,South,172,2.0,7.0,88,0.00,,,0.00,111,weatherlink.com 1.10,2013-07-30 12:33:00,
2013-07-30 08:48:00,63.3,59.0,30.10,SSW,202,5.0,10.0,86,0.00,,,0.00,156,weatherlink.com 1.10,2013-07-30 12:48:00,
2013-07-30 09:03:00,63.3,59.0,30.10,West,274,5.0,9.0,85,0.00,,,0.00,93,weatherlink.com 1.10,2013-07-30 13:03:00,
2013-07-30 09:18:00,66.2,61.0,30.11,SW,218,5.0,8.0,82,0.00,,,0.00,127,weatherlink.com 1.10,2013-07-30 13:18:00,
2013-07-30 09:33:00,67.5,61.0,30.11,SW,217,2.0,8.0,79,0.00,,,0.00,132,weatherlink.com 1.10,2013-07-30 13:33:00,
2013-07-30 09:48:00,67.7,61.0,30.11,NE,44,1.0,7.0,78,0.00,,,0.00,98,weatherlink.com 1.10,2013-07-30 13:48:00,
2013-07-30 10:03:00,66.9,59.0,30.11,NW,313,3.0,12.0,77,0.00,,,0.00,362,weatherlink.com 1.10,2013-07-30 14:03:00,
2013-07-30 10:18:00,68.3,60.0,30.11,SW,217,4.0,9.0,76,0.00,,,0.00,496,weatherlink.com 1.10,2013-07-30 14:18:00,
2013-07-30 10:33:00,67.2,59.0,30.11,WSW,247,6.0,8.0,76,0.00,,,0.00,211,weatherlink.com 1.10,2013-07-30 14:33:00,
2013-07-30 10:48:00,68.9,60.0,30.11,SW,235,4.0,9.0,73,0.00,,,0.00,902,weatherlink.com 1.10,2013-07-30 14:48:00,
2013-07-30 11:03:00,69.0,60.0,30.10,SW,233,5.0,11.0,72,0.00,,,0.00,891,weatherlink.com 1.10,2013-07-30 15:03:00,
2013-07-30 11:18:00,70.5,59.0,30.10,SSW,207,4.0,12.0,67,0.00,,,0.00,374,weatherlink.com 1.10,2013-07-30 15:18:00,
2013-07-30 11:33:00,69.5,58.0,30.11,SW,215,4.0,10.0,68,0.00,,,0.00,907,weatherlink.com 1.10,2013-07-30 15:33:00,
2013-07-30 11:48:00,69.7,60.0,30.10,SSW,206,6.0,10.0,70,0.00,,,0.00,875,weatherlink.com 1.10,2013-07-30 15:48:00,
2013-07-30 12:03:00,70.4,58.0,30.10,WSW,252,5.0,17.0,66,0.00,,,0.00,394,weatherlink.com 1.10,2013-07-30 16:03:00,
2013-07-30 12:18:00,72.4,59.0,30.10,SW,225,6.0,11.0,63,0.00,,,0.00,993,weatherlink.com 1.10,2013-07-30 16:18:00,
2013-07-30 12:33:00,70.6,58.0,30.09,WNW,282,4.0,14.0,64,0.00,,,0.00,947,weatherlink.com 1.10,2013-07-30 16:33:00,
2013-07-30 12:48:00,70.3,58.0,30.09,West,281,4.0,13.0,66,0.00,,,0.00,220,weatherlink.com 1.10,2013-07-30 16:48:00,
2013-07-30 13:18:00,71.8,57.0,30.09,WNW,290,3.0,15.0,61,0.00,,,0.00,403,weatherlink.com 1.10,2013-07-30 17:18:00,
2013-07-30 13:33:00,72.0,59.0,30.09,SW,235,9.0,16.0,64,0.00,,,0.00,418,weatherlink.com 1.10,2013-07-30 17:33:00,
2013-07-30 13:49:00,71.2,58.0,30.09,WSW,250,6.0,14.0,63,0.00,,,0.00,403,weatherlink.com 1.10,2013-07-30 17:49:00,
2013-07-30 14:04:00,74.1,59.0,30.08,WSW,241,5.0,9.0,59,0.00,,,0.00,348,weatherlink.com 1.10,2013-07-30 18:04:00,
2013-07-30 14:19:00,73.8,58.0,30.08,SW,229,7.0,13.0,58,0.00,,,0.00,434,weatherlink.com 1.10,2013-07-30 18:19:00,
2013-07-30 14:34:00,73.6,60.0,30.07,SW,231,2.0,10.0,62,0.00,,,0.00,891,weatherlink.com 1.10,2013-07-30 18:34:00,
2013-07-30 14:49:00,73.3,60.0,30.07,West,277,3.0,16.0,64,0.00,,,0.00,893,weatherlink.com 1.10,2013-07-30 18:49:00,
2013-07-30 15:04:00,73.7,58.0,30.06,West,260,7.0,15.0,58,0.00,,,0.00,352,weatherlink.com 1.10,2013-07-30 19:04:00,
2013-07-30 15:19:00,71.8,59.0,30.06,WSW,246,3.0,11.0,64,0.00,,,0.00,216,weatherlink.com 1.10,2013-07-30 19:19:00,
2013-07-30 15:34:00,71.8,59.0,30.06,WSW,254,5.0,8.0,64,0.00,,,0.00,186,weatherlink.com 1.10,2013-07-30 19:34:00,
2013-07-30 15:49:00,71.6,60.0,30.06,NW,313,6.0,7.0,66,0.00,,,0.00,239,weatherlink.com 1.10,2013-07-30 19:49:00,
2013-07-30 16:04:00,71.9,60.0,30.06,NW,319,5.0,8.0,66,0.00,,,0.00,332,weatherlink.com 1.10,2013-07-30 20:04:00,
2013-07-30 16:19:00,73.7,60.0,30.05,SW,224,5.0,8.0,63,0.00,,,0.00,183,weatherlink.com 1.10,2013-07-30 20:19:00,
2013-07-30 16:34:00,74.9,60.0,30.05,SW,216,5.0,12.0,60,0.00,,,0.00,619,weatherlink.com 1.10,2013-07-30 20:34:00,
2013-07-30 16:49:00,74.4,60.0,30.05,WSW,240,5.0,7.0,61,0.00,,,0.00,642,weatherlink.com 1.10,2013-07-30 20:49:00,
2013-07-30 17:04:00,74.3,59.0,30.05,WSW,246,7.0,10.0,60,0.00,,,0.00,306,weatherlink.com 1.10,2013-07-30 21:04:00,
2013-07-30 17:19:00,73.8,60.0,30.05,SW,228,5.0,10.0,62,0.00,,,0.00,519,weatherlink.com 1.10,2013-07-30 21:19:00,
2013-07-30 17:34:00,73.7,59.0,30.06,WSW,244,7.0,11.0,60,0.00,,,0.00,483,weatherlink.com 1.10,2013-07-30 21:34:00,
2013-07-30 17:49:00,73.6,59.0,30.06,WSW,254,7.0,10.0,61,0.00,,,0.00,135,weatherlink.com 1.10,2013-07-30 21:49:00,
2013-07-30 18:04:00,73.8,60.0,30.06,WNW,302,5.0,7.0,62,0.00,,,0.00,144,weatherlink.com 1.10,2013-07-30 22:04:00,
2013-07-30 18:19:00,73.1,60.0,30.06,NNW,348,2.0,5.0,63,0.00,,,0.00,91,weatherlink.com 1.10,2013-07-30 22:19:00,
2013-07-30 18:34:00,74.5,60.0,30.06,NW,322,4.0,6.0,61,0.00,,,0.00,76,weatherlink.com 1.10,2013-07-30 22:34:00,
2013-07-30 18:49:00,73.7,60.0,30.06,NNW,330,4.0,5.0,62,0.00,,,0.00,83,weatherlink.com 1.10,2013-07-30 22:49:00,
2013-07-30 19:04:00,74.0,61.0,30.06,NW,317,2.0,5.0,63,0.00,,,0.00,176,weatherlink.com 1.10,2013-07-30 23:04:00,
2013-07-30 19:19:00,73.2,60.0,30.06,NNW,338,3.0,5.0,64,0.00,,,0.00,123,weatherlink.com 1.10,2013-07-30 23:19:00,
2013-07-30 19:34:00,73.5,60.0,30.06,NW,326,3.0,4.0,63,0.00,,,0.00,58,weatherlink.com 1.10,2013-07-30 23:34:00,
2013-07-30 19:49:00,72.4,60.0,30.06,NNW,327,1.0,4.0,65,0.00,,,0.00,16,weatherlink.com 1.10,2013-07-30 23:49:00,
2013-07-30 20:04:00,71.6,60.0,30.06,NW,323,0.0,3.0,68,0.00,,,0.00,12,weatherlink.com 1.10,2013-07-31 00:04:00,
2013-07-30 20:19:00,70.3,61.0,30.06,SSW,210,2.0,2.0,72,0.00,,,0.00,5,weatherlink.com 1.10,2013-07-31 00:19:00,
2013-07-30 20:34:00,68.1,60.0,30.06,West,270,3.0,5.0,76,0.00,,,0.00,0,weatherlink.com 1.10,2013-07-31 00:34:00,
2013-07-30 20:49:00,69.1,60.0,30.06,WNW,282,3.0,4.0,73,0.00,,,0.00,0,weatherlink.com 1.10,2013-07-31 00:49:00,
2013-07-30 21:04:00,69.2,61.0,30.07,West,263,3.0,5.0,74,0.00,,,0.00,0,weatherlink.com 1.10,2013-07-31 01:04:00,
2013-07-30 21:19:00,68.1,61.0,30.07,West,265,6.0,7.0,78,0.00,,,0.00,0,weatherlink.com 1.10,2013-07-31 01:19:00,
2013-07-30 21:34:00,67.4,61.0,30.08,SW,232,2.0,6.0,80,0.00,,,0.00,0,weatherlink.com 1.10,2013-07-31 01:34:00,
2013-07-30 21:49:00,66.3,61.0,30.08,SW,232,3.0,5.0,82,0.00,,,0.00,0,weatherlink.com 1.10,2013-07-31 01:49:00,
2013-07-30 22:04:00,65.9,61.0,30.08,West,275,2.0,7.0,83,0.00,,,0.00,0,weatherlink.com 1.10,2013-07-31 02:04:00,
2013-07-30 22:19:00,65.4,60.0,30.08,SW,215,1.0,7.0,83,0.00,,,0.00,0,weatherlink.com 1.10,2013-07-31 02:19:00,
2013-07-30 22:34:00,64.9,60.0,30.08,SSW,202,1.0,4.0,84,0.00,,,0.00,0,weatherlink.com 1.10,2013-07-31 02:34:00,
2013-07-30 22:49:00,64.2,60.0,30.08,SSW,192,1.0,3.0,85,0.00,,,0.00,0,weatherlink.com 1.10,2013-07-31 02:49:00,
2013-07-30 23:04:00,63.5,59.0,30.08,SSE,161,1.0,3.0,86,0.00,,,0.00,0,weatherlink.com 1.10,2013-07-31 03:04:00,
2013-07-30 23:19:00,62.8,59.0,30.08,SSE,159,2.0,3.0,88,0.00,,,0.00,0,weatherlink.com 1.10,2013-07-31 03:19:00,
2013-07-30 23:34:00,62.4,59.0,30.08,SSE,150,2.0,2.0,88,0.00,,,0.00,0,weatherlink.com 1.10,2013-07-31 03:34:00,
2013-07-30 23:49:00,62.0,59.0,30.08,SE,144,2.0,2.0,89,0.00,,,0.00,0,weatherlink.com 1.10,2013-07-31 03:49:00,